Location: Centerville
(32.8776°N, 96.6203°W)
Time: 05:35:59
(UTC+00:00)

USA 245 - Pass Details

Date: 17 June 2021
Orbit: 262 x 981 km, 97.9° (Epoch: 24 July)

Event Time Altitude Azimuth Distance (km) Brightness Sun altitude
Exits shadow 03:35:47 49° 139° (SE) 865 3.8 -20.4°
Maximum altitude 03:36:54 70° 75° (ENE) 743 3.8 -20.6°
Drops below altitude 10° 03:42:11 10° 353° (N) 2,397 7.3 -21.3°
Sets 03:44:47 0° 351° (N) 3,435 8.3 -21.7°
